[[{"header":{"parameterUnit":"m.s-1","parameterCategory":1,"la1":30.2991,"la2":30.254,"lo1":-89.0895,"lo2":-89.0444,"dy":0.0017,"dx":0.0017,"nx":28,"ny":28,"refTime":"2024-03-17T09:00:00:Z","depth":0,"parameterNumber":2,"parameterNumberName":"U-component_of_WINDS"},"data":[0,0,0,0,0,0,0,0,0,0,0,0,0,0,0,0,0,0,0,0,0,0,0,0,0,0,0,0,0,0,0,0,0,0,0,0,0,0,0,0,0,0,0,0,0,0,0,0,0,0,0,0,0,0,0,0,0,0,-0.3681,-0.3682,0,-0.3821,-0.3822,-0.3824,-0.3828,-0.3826,-0.3824,-0.3823,-0.3979,-0.3985,-0.3991,0,0,0,0,0,0,0,0,0,0,0,0,0,-0.3429,-0.3434,-0.368,-0.3682,-0.3684,-0.382,-0.3822,-0.3824,-0.3828,-0.3826,-0.3824,-0.3822,-0.3977,-0.3984,-0.3991,0,0,0,0,0,0,0,0,0,0,0,0,0,-0.3551,-0.3435,-0.368,-0.3702,-0.3705,-0.382,-0.3822,-0.3825,-0.3829,-0.3826,-0.3823,-0.3821,-0.3975,-0.3984,-0.3992,-0.4099,0,0,-0.4019,-0.4023,0,0,0,0,0,0,0,0,-0.3544,-0.3561,-0.3697,-0.3701,-0.3705,-0.3804,-0.3791,-0.3917,-0.3829,-0.3782,-0.3823,-0.382,-0.3924,-0.3937,-0.3969,-0.4106,-0.4113,-0.402,-0.4025,-0.4029,-0.4031,0,0,0,0,0,0,0,-0.3536,-0.3555,-0.3736,-0.3699,-0.3704,-0.3709,-0.3724,-0.3815,-0.3867,-0.3786,-0.3787,-0.3803,-0.3926,-0.3961,-0.3973,-0.4115,-0.4019,-0.4027,-0.4032,-0.4036,-0.435,-0.4353,0,0,0,0,0,0,-0.3521,-0.3547,-0.3732,-0.374,-0.3616,-0.3716,-0.3732,-0.3775,-0.3865,-0.3876,-0.3805,-0.3802,-0.3947,-0.3963,-0.3978,-0.4111,-0.4029,-0.4037,-0.4042,-0.4347,-0.435,-0.4354,0,0,0,0,0,0,-0.3516,-0.3538,-0.3726,-0.3644,-0.3668,-0.3723,-0.3771,-0.3779,-0.3814,-0.3879,-0.389,-0.383,-0.3946,-0.3966,-0.4068,-0.4116,-0.4041,-0.4049,-0.4343,-0.4348,-0.4352,-0.4375,0,0,0,0,0,0,-0.3509,-0.3536,-0.3573,-0.3645,-0.3673,-0.381,-0.3774,-0.3784,-0.3827,-0.3826,-0.3906,-0.3917,-0.3945,-0.4055,-0.4077,-0.4127,-0.4055,-0.4339,-0.4345,-0.4351,-0.437,-0.4379,-0.4388,0,0,0,0,0,-0.35,-0.3576,-0.3575,-0.3597,-0.372,-0.3812,-0.3829,-0.3856,-0.3831,-0.3872,-0.3914,-0.3915,-0.4107,-0.4066,-0.409,-0.4143,-0.4336,-0.4343,-0.435,-0.4366,-0.4378,-0.4387,0,0,0,0,0,0,-0.3513,-0.3586,-0.3585,-0.3686,-0.3743,-0.3812,-0.3864,-0.3867,-0.3935,-0.3931,-0.3966,-0.3984,-0.4086,-0.4125,-0.4078,-0.4253,-0.4219,-0.4232,-0.4223,-0.4235,-0.4243,-0.4233,-0.4063,0,0,0,0,0,-0.3527,-0.3591,-0.3653,-0.3737,-0.3765,-0.381,-0.3851,-0.3867,-0.3928,-0.3953,-0.4003,-0.4066,-0.4141,-0.419,-0.4263,-0.4375,-0.4395,-0.4425,-0.4433,-0.444,-0.4451,-0.4517,-0.4531,-0.4377,-0.4377,-0.4376,0,0,-0.3558,-0.3606,-0.3645,-0.3741,-0.3786,-0.3856,-0.383,-0.3905,-0.3959,-0.3966,-0.4064,-0.4104,-0.4177,-0.4285,-0.4336,-0.4321,-0.4498,-0.4449,-0.4454,-0.4461,-0.4525,-0.454,-0.4553,-0.4381,-0.4381,-0.438,0,0,-0.365,-0.3691,-0.3766,-0.3812,-0.3879,-0.3909,-0.3927,-0.3997,-0.4022,-0.412,-0.4128,-0.4195,-0.4323,-0.4375,-0.4419,-0.4532,-0.4537,-0.4556,-0.4603,-0.4666,-0.4678,-0.4689,-0.4732,-0.4747,-0.4566,-0.4566,-0.4566,0,-0.3682,-0.3783,-0.3806,-0.388,-0.3924,-0.393,-0.4009,-0.4053,-0.4143,-0.4175,-0.4156,-0.4317,-0.4367,-0.4489,-0.4517,-0.4551,-0.4577,-0.4547,-0.4674,-0.4685,-0.4696,-0.4738,-0.4753,-0.4568,-0.4568,-0.4567,-0.4567,0,-0.3819,-0.389,-0.3943,-0.4025,-0.4075,-0.4151,-0.419,-0.4239,-0.4251,-0.4284,-0.4387,-0.4447,-0.4532,-0.4562,-0.4577,-0.4688,-0.4677,-0.4665,-0.4633,-0.4712,-0.4752,-0.4768,-0.4571,-0.457,-0.4569,-0.4569,0,0,-0.3923,-0.4016,-0.4036,-0.4074,-0.415,-0.4207,-0.4287,-0.4366,-0.4408,-0.4471,-0.4541,-0.4649,-0.4639,-0.4689,-0.4709,-0.4765,-0.4854,-0.4748,-0.475,-0.4767,-0.4984,-0.4993,-0.5011,-0.4857,-0.486,-0.4863,-0.4979,0,-0.4025,-0.4159,-0.4183,-0.4303,-0.4371,-0.4379,-0.4448,-0.4505,-0.4539,-0.4605,-0.4644,-0.4721,-0.4701,-0.4731,-0.4786,-0.4831,-0.4899,-0.4823,-0.4927,-0.493,-0.4909,-0.5031,-0.504,-0.5147,-0.4994,-0.4997,-0.4999,0,-0.4161,-0.4223,-0.4348,-0.4416,-0.4446,-0.4507,-0.4583,-0.4645,-0.4711,-0.4732,-0.4787,-0.4802,-0.4889,-0.4852,-0.4975,-0.4923,-0.4967,-0.4996,-0.5001,-0.5013,-0.497,-0.5048,-0.5181,-0.5198,-0.5023,-0.5021,-0.5019,0,-0.4226,-0.4342,-0.4432,-0.4465,-0.4546,-0.4589,-0.4626,-0.4689,-0.4736,-0.4805,-0.4836,-0.4916,-0.496,-0.5023,-0.5061,-0.5029,-0.5182,-0.5147,-0.5206,-0.5205,-0.5239,-0.5236,-0.5382,-0.5264,-0.5264,-0.5264,-0.5263,0,-0.4338,-0.4415,-0.4462,-0.4518,-0.4606,-0.4635,-0.4723,-0.476,-0.4817,-0.4884,-0.4897,-0.4961,-0.5005,-0.5076,-0.5107,-0.5206,-0.5226,-0.5249,-0.5256,-0.5248,-0.5245,-0.5278,-0.5273,-0.5268,-0.5267,-0.5266,-0.5266,0,-0.4426,-0.446,-0.456,-0.4628,-0.4647,-0.4709,-0.477,-0.4827,-0.4861,-0.4946,-0.4967,-0.5022,-0.5107,-0.515,-0.5257,-0.5278,-0.539,-0.5392,-0.5366,-0.5369,-0.5426,-0.5421,-0.56,-0.5626,-0.5489,-0.549,-0.5492,0,-0.4495,-0.4554,-0.4628,-0.4671,-0.4708,-0.4778,-0.4825,-0.4858,-0.4908,-0.4989,-0.5037,-0.5121,-0.5191,-0.5327,-0.5379,-0.5462,-0.5468,-0.5525,-0.5481,-0.5472,-0.5471,-0.5468,-0.5476,-0.5533,-0.5534,-0.5536,-0.5536,0,-0.4615,-0.4629,-0.4694,-0.4766,-0.4822,-0.4881,-0.494,-0.4977,-0.502,-0.5076,-0.516,-0.5213,-0.5321,-0.5407,-0.5493,-0.5537,-0.5546,-0.555,-0.5568,-0.5561,-0.5544,-0.5556,-0.5389,-0.5546,-0.5545,-0.5544,-0.5544,-0.5543,-0.4697,-0.4751,-0.4811,-0.4884,-0.4931,-0.4986,-0.5043,-0.5083,-0.5153,-0.524,-0.5256,-0.5347,-0.5416,-0.5533,-0.5579,-0.5654,-0.5642,-0.5668,-0.5675,-0.5682,-0.5685,-0.5531,-0.567,-0.567,-0.567,-0.5669,-0.5669,0,-0.4819,-0.4858,-0.4925,-0.5005,-0.5064,-0.5062,-0.5129,-0.5179,-0.5257,-0.5318,-0.5385,-0.5485,-0.5568,-0.5627,-0.5713,-0.5762,-0.5769,-0.5784,-0.5782,-0.5792,-0.569,-0.5666,-0.5777,-0.5777,-0.5777,-0.5777,-0.5777,-0.5777,-0.4889,-0.498,-0.5002,-0.5118,-0.5158,-0.5243,-0.5282,-0.5335,-0.5384,-0.5492,-0.556,-0.5596,-0.5658,-0.5749,-0.5827,-0.5843,-0.5875,-0.5891,-0.5907,-0.581,-0.5799,-0.5788,-0.5766,-0.5897,-0.5897,-0.6004,-0.6005,-0.6005]},{"header":{"parameterUnit":"m.s-1","parameterCategory":1,"la1":30.2991,"la2":30.254,"lo1":-89.0895,"lo2":-89.0444,"dy":0.0017,"dx":0.0017,"nx":28,"ny":28,"refTime":"2024-03-17T09:00:00:Z","depth":0,"parameterNumber":3,"parameterNumberName":"V-component_of_WINDS"},"data":[0,0,0,0,0,0,0,0,0,0,0,0,0,0,0,0,0,0,0,0,0,0,0,0,0,0,0,0,0,0,0,0,0,0,0,0,0,0,0,0,0,0,0,0,0,0,0,0,0,0,0,0,0,0,0,0,0,0,1.1813,1.1814,0,1.188,1.1881,1.1881,1.1956,1.1957,1.1958,1.1959,1.2024,1.2024,1.2025,0,0,0,0,0,0,0,0,0,0,0,0,0,1.1747,1.1748,1.1813,1.1814,1.1814,1.188,1.1881,1.1881,1.1956,1.1957,1.1959,1.196,1.2023,1.2024,1.2025,0,0,0,0,0,0,0,0,0,0,0,0,0,1.179,1.1748,1.1813,1.186,1.1865,1.1879,1.1881,1.1882,1.1956,1.1957,1.1959,1.1961,1.2023,1.2024,1.2025,1.1998,0,0,1.2028,1.2029,0,0,0,0,0,0,0,0,1.1788,1.1793,1.1852,1.1856,1.1862,1.1911,1.1881,1.192,1.1955,1.1921,1.1959,1.1961,1.1985,1.1989,1.1998,1.2001,1.2004,1.2028,1.2029,1.2029,1.203,0,0,0,0,0,0,0,1.1785,1.179,1.1839,1.1853,1.1859,1.1876,1.1885,1.1889,1.1942,1.1924,1.193,1.1937,1.1988,1.1997,1.2,1.2005,1.2028,1.2029,1.203,1.203,1.1989,1.1988,0,0,0,0,0,0,1.1775,1.1787,1.1837,1.1841,1.1828,1.1876,1.1885,1.1894,1.1943,1.1952,1.1935,1.194,1.1994,1.1998,1.2002,1.1973,1.2029,1.203,1.2031,1.1991,1.1989,1.1987,0,0,0,0,0,0,1.1773,1.1779,1.1834,1.1816,1.1824,1.1876,1.1885,1.1894,1.1903,1.1951,1.1961,1.1935,1.1995,1.2001,1.1999,1.1977,1.2031,1.2032,1.1993,1.199,1.1988,1.1915,0,0,0,0,0,0,1.1771,1.1778,1.1768,1.1815,1.1825,1.183,1.1883,1.1894,1.1905,1.1912,1.1953,1.1961,1.1997,1.1997,1.2,1.1979,1.2032,1.1995,1.1992,1.1989,1.192,1.1911,1.1903,0,0,0,0,0,1.1769,1.1744,1.1768,1.1773,1.1815,1.1829,1.1834,1.1877,1.1903,1.1894,1.1925,1.196,1.1979,1.1996,1.2,1.1979,1.1997,1.1993,1.1989,1.1924,1.1912,1.1903,0,0,0,0,0,0,1.1692,1.1751,1.1778,1.1768,1.1793,1.1842,1.1831,1.1864,1.1881,1.1886,1.1938,1.1946,1.1938,1.1959,1.1977,1.1956,1.1993,1.199,1.1942,1.1932,1.1923,1.1917,1.2033,0,0,0,0,0,1.1674,1.1682,1.1733,1.172,1.1731,1.1779,1.1787,1.1818,1.1845,1.1855,1.1886,1.1911,1.1922,1.1928,1.1942,1.1924,1.1934,1.1912,1.1903,1.1896,1.1892,1.1884,1.1874,1.1975,1.1975,1.1975,0,0,1.1637,1.167,1.1672,1.1705,1.1728,1.1734,1.1787,1.1791,1.1795,1.1856,1.1856,1.1879,1.191,1.19,1.1897,1.1917,1.1867,1.1891,1.1885,1.1885,1.1879,1.1869,1.1861,1.1972,1.1972,1.1973,0,0,1.1572,1.1598,1.159,1.1613,1.1648,1.168,1.1678,1.1722,1.174,1.1742,1.1788,1.1793,1.1812,1.1832,1.1845,1.1789,1.1822,1.1792,1.1746,1.1738,1.173,1.1723,1.1702,1.1694,1.1788,1.1788,1.1788,0,1.152,1.1532,1.1581,1.1583,1.1596,1.1653,1.1645,1.1664,1.17,1.1707,1.173,1.1756,1.178,1.1775,1.1762,1.1771,1.1769,1.1786,1.1727,1.1721,1.1715,1.1696,1.1688,1.1784,1.1785,1.1785,1.1785,0,1.1467,1.1475,1.1464,1.1499,1.1512,1.1508,1.1556,1.1562,1.1593,1.1622,1.1623,1.1655,1.1675,1.1677,1.1706,1.1677,1.1688,1.1718,1.1756,1.1701,1.1684,1.1677,1.1778,1.178,1.1781,1.1782,0,0,1.1353,1.1418,1.1413,1.143,1.1474,1.148,1.1479,1.1501,1.1505,1.1529,1.1529,1.1544,1.1573,1.1587,1.1619,1.1612,1.1565,1.1644,1.1645,1.1627,1.1534,1.1509,1.15,1.1588,1.1587,1.1586,1.1531,0,1.1294,1.1297,1.1342,1.1332,1.1339,1.1395,1.1394,1.142,1.1448,1.1458,1.1489,1.1498,1.1536,1.1545,1.1541,1.1572,1.1547,1.1577,1.1587,1.1587,1.1576,1.1491,1.1466,1.1411,1.1524,1.1523,1.1523,0,1.1226,1.1248,1.1238,1.1283,1.1288,1.1286,1.1311,1.132,1.135,1.1372,1.1388,1.1426,1.1427,1.1465,1.1467,1.1486,1.1493,1.1509,1.1508,1.1509,1.155,1.1488,1.1395,1.1386,1.1513,1.1513,1.1514,0,1.1142,1.1169,1.1167,1.118,1.1233,1.1231,1.1252,1.1285,1.1296,1.1317,1.1324,1.1344,1.1355,1.1369,1.1411,1.1435,1.1408,1.1449,1.1424,1.1423,1.1414,1.1413,1.1319,1.1421,1.1421,1.1421,1.1421,0,1.1071,1.1063,1.1131,1.1129,1.1121,1.1173,1.1164,1.1191,1.122,1.1224,1.1273,1.1276,1.1332,1.134,1.1373,1.1369,1.1374,1.139,1.1398,1.1384,1.1382,1.1388,1.1392,1.1419,1.142,1.142,1.142,0,1.0975,1.102,1.1022,1.1072,1.1085,1.1077,1.112,1.112,1.1152,1.1157,1.1161,1.121,1.1223,1.1267,1.129,1.1312,1.1298,1.1315,1.1287,1.1292,1.1264,1.1266,1.1169,1.1158,1.1268,1.1267,1.1266,0,1.0926,1.0921,1.0972,1.0979,1.0999,1.1009,1.1021,1.1072,1.1082,1.1118,1.1114,1.1131,1.1147,1.1165,1.1202,1.122,1.1238,1.1203,1.124,1.1227,1.1235,1.1234,1.1234,1.1193,1.1192,1.1191,1.119,0,1.0833,1.0856,1.0872,1.0895,1.0908,1.0929,1.0953,1.0955,1.1013,1.1021,1.1036,1.1048,1.1073,1.1089,1.1114,1.1135,1.1171,1.1178,1.1173,1.1158,1.1141,1.1149,1.1263,1.1179,1.118,1.1181,1.1182,1.1182,1.0758,1.0757,1.0792,1.0808,1.0832,1.0853,1.0856,1.0889,1.0903,1.0928,1.0958,1.0968,1.1,1.1037,1.1056,1.1064,1.1084,1.1077,1.1075,1.1072,1.1065,1.1142,1.1069,1.107,1.107,1.107,1.107,0,1.0667,1.0693,1.0708,1.074,1.0752,1.0788,1.0816,1.0823,1.0833,1.086,1.0876,1.0893,1.0909,1.0949,1.0969,1.0968,1.0985,1.0971,1.097,1.0975,1.1047,1.1048,1.0957,1.0957,1.0957,1.0957,1.0957,1.0957,1.0621,1.062,1.0648,1.0659,1.0685,1.0697,1.071,1.073,1.0752,1.0769,1.0783,1.081,1.0842,1.0865,1.0881,1.0892,1.0896,1.0877,1.0893,1.0959,1.097,1.098,1.0982,1.0878,1.0878,1.0821,1.082,1.082]}]]